Other Public Products
Issued by NWS Charleston, SC

Home | Current Version | Previous Version | Text Only | Print | Product List | Glossary On
Versions: 1 2 3 4 5 6 7 8 9 10 11 12 13 14 15 16 17 18 19 20 21 22 23 24 25 26 27 28 29 30 31 32 33 34 35 36 37 38 39 40 41 42 43 44 45 46 47 48 49 50
789
FPUS82 KCHS 212110
OPUCHS

TEST...KCHS/KSAV Gateway Observations...TEST
National Weather Service Charleston SC
400 PM EST TUE FEB 21 2017

NOTE: "fair" indicates few or no clouds below 12,000 feet with no
significant weather and/or obstructions to visibility.

SCZ050-WAZ558-NCZ071-TXZ119-213-PAZ071-DCZ001-FLZ074-172-MI076-
NYZ176-178-MAZ016-IL014-TNZ027-NJZ106-GAZ044-MD014-212200-
...Gateway Observations for Charleston International...

CITY           SKY/WX    TMP DP  RH WIND       PRES   REMARKS
Chas Airport   CLOUDY    69  58  67 E13G22    30.07F
Seattle        CLOUDY    45  40  82 N8        29.94R
Charlotte      CLOUDY    68  42  38 VRB6      30.09F
Dallas DFW     MOSUNNY   77  45  32 NW15G24   29.90F
Dallas Love    MOSUNNY   76  45  33 N13       29.91F
Philladelphia  CLOUDY    50  30  46 SW10      30.21F
Wash National  PTSUNNY   55  33  43 S9        30.18F
Baltimore      PTSUNNY   52  33  48 SE6       30.18F
Miami          CLOUDY    74  62  66 E12       30.00F
Detroit        CLOUDY    56  46  69 S7        29.93F
Newark         CLOUDY    44  32  62 SE8       30.23F
Laguardia      CLOUDY    46  30  53 S13       30.23F
J F K          PTSUNNY   43  32  65 SE10      30.26F
Boston Logan   CLOUDY    38  28  67 E14       30.24F WCI  30
Ft. Lauderdale CLOUDY    76  61  59 SE12      29.99F
Chicago O`Hare PTSUNNY   65  53  65 W8        29.90R
Chicago Midway CLOUDY    64  53  67 W8        29.90S
Houston Bush   MOSUNNY   75  52  44 N15G21    29.88F
Houston Hobby  MOSUNNY   76  51  41 NW13      29.87F
Nashville      CLOUDY    68  52  56 S16G30    29.91F
Atlanta        LGT RAIN  64  60  87 E7        30.00S

$$

GAZ044-118-TXZ119-213-NCZ071-DCZ001-MDZ014-506-PAZ021-071-NJZ106-
NYZ176-178-MAZ106-OHZ011-021-055-MIZ076-KYZ091-ILZ014-INZ047-
MNZ060-212200-
...Gateway Observations for Savannah International...

CITY           SKY/WX    TMP DP  RH WIND       PRES   REMARKS
Savannah Arpt  CLOUDY    73  60  63 SE14      30.04S
Atlanta        LGT RAIN  64  60  87 E7        30.00S
Charlotte      CLOUDY    68  42  38 VRB6      30.09F
Dallas DFW     MOSUNNY   77  45  32 NW15G24   29.90F
Houston Bush   MOSUNNY   75  52  44 N15G21    29.88F
Wash National  PTSUNNY   55  33  43 S9        30.18F
Wash Dulles    CLOUDY    55  31  39 SE10      30.16F
Baltimore      PTSUNNY   52  33  48 SE6       30.18F
Philadelphia   CLOUDY    50  30  46 SW10      30.21F
Newark         CLOUDY    44  32  62 SE8       30.23F
Laguardia      CLOUDY    46  30  53 S13       30.23F
J F K          PTSUNNY   43  32  65 SE10      30.26F
Boston         CLOUDY    38  28  67 E14       30.24F WCI  30
Pittsburg      CLOUDY    65  41  41 SW6       29.98F
Akron          CLOUDY    63  44  50 SW9       29.98R
Cleveland      CLOUDY    65  44  46 W6        29.97S
Cincinnati     CLOUDY    67  50  54 NW3       29.96F
Columbus       PTSUNNY   65  48  55 SW5       29.97S
Detroit        CLOUDY    56  46  69 S7        29.93F
Chicago O`Hare PTSUNNY   65  53  65 W8        29.90R
Minneapolis    PTSUNNY   61  39  44 SW17G31   29.73F
Indianapolis   CLOUDY    63  48  58 S6        29.93R

$$




USA.gov is the U.S. government's official web portal to all federal, state and local government web resources and services.